Regional Weather Roundup
Issued by NWS

Home | Current Version | Previous Version | Text Only | Print | Product List | Glossary On
Versions: 1 2 3 4 5 6 7 8 9 10 11 12 13 14 15 16 17 18 19 20 21 22 23 24 25 26 27 28 29 30 31 32 33 34 35 36 37 38 39 40 41 42 43 44 45 46 47 48 49 50
000
ASUS44 KMEG 290410
RWRTN
TENNESSEE HOURLY STATE WEATHER ROUNDUP
NATIONAL WEATHER SERVICE MEMPHIS TN
1100 PM CDT FRI AUG 28 2015

TNZ002-004-019-021-049-052-054-088>092-290500-
WEST TENNESSEE

CITY           SKY/WX    TMP DP  RH WIND       PRES   REMARKS
MEMPHIS INTL   PTCLDY    80  66  62 SE5       30.04S
NWS MEMPHIS      N/A     71 N/A N/A MISG        N/A
JACKSON        CLEAR     68  65  90 CALM      30.07R
DYERSBURG      CLEAR    N/A N/A N/A MISG        N/A
UNION CITY     CLEAR    N/A N/A N/A CALM      30.05S
PARIS          CLEAR     64  63  94 SE3       30.08S
LEXINGTON      CLEAR     66  66 100 CALM      30.08S
$$

TNZ008-025-027-028-033-062-065-066-290500-
NORTH MIDDLE TENNESSEE

CITY           SKY/WX    TMP DP  RH WIND       PRES   REMARKS
NASHVILLE      CLEAR     73  64  73 S6        30.11R
CLARKSVILLE    CLEAR     68  63  84 CALM      30.09R
SMYRNA         CLEAR     69  66  90 CALM      30.12S
COOKEVILLE     CLEAR     66  64  94 CALM      30.14S
CROSSVILLE     CLEAR     70  63  78 CALM      30.20S
$$

TNZ061-075-076-078-094-096-097-290500-
SOUTH MIDDLE TENNESSEE

CITY           SKY/WX    TMP DP  RH WIND       PRES   REMARKS
FAYETTEVILLE   PTCLDY    70  64  83 CALM      30.13F
TULLAHOMA      CLEAR     72  64  78 SE5       30.16S
WINCHESTER     PTCLDY    70  66  88 SE6       30.15S
MCMINNVILLE    CLEAR     66  66 100 CALM      30.15S
COLUMBIA       CLEAR     70  70 100 S3        30.10S
SHELBYVILLE    CLEAR     72  68  88 CALM      30.14S
$$

TNZ017-018-042-046-047-290500-
NORTHEAST TENNESSEE

CITY           SKY/WX    TMP DP  RH WIND       PRES   REMARKS
TRI CITIES     MOCLDY    68  61  78 CALM      30.21R
ELIZABETHTON   CLEAR     63  59  88 CALM      30.22F
$$

TNZ012-013-036-069-073-074-290500-
CENTRAL EAST TENNESSEE

CITY           SKY/WX    TMP DP  RH WIND       PRES   REMARKS
KNOXVILLE      MOCLDY    75  64  68 CALM      30.16R
OAK RIDGE      MOCLDY    71  66  84 CALM      30.17S
GATLINBURG     CLEAR     68  61  77 CALM      30.16S
MORRISTOWN     CLEAR     70  61  73 CALM      30.19S
$$

TNZ083-085-099-290500-
SOUTHEAST TENNESSEE

CITY           SKY/WX    TMP DP  RH WIND       PRES   REMARKS
CHATTANOOGA    PTCLDY    76  65  68 S3        30.16R
$$

SKY/WX REPORTED AS FAIR MEANS FEW OR NO CLOUDS BELOW
12 THOUSAND FEET.



USA.gov is the U.S. government's official web portal to all federal, state and local government web resources and services.